Paris, IL

10:56 AM CDT on June 27, 2017 (GMT -0500)
Edgar County

Weather History for KPRG - January, 2014

Change the Weather History Date:

Sunday, January 19, 2014

  Actual Average (KHUF) Record (KHUF)
Temperature  
Mean Temperature 28 °F -  
Max Temperature 37 °F 36 °F 63 °F (1974)
Min Temperature 18 °F 16 °F -11 °F (1977)
Degree Days  
Heating Degree Days 38    
Moisture  
Dew Point 22 °F    
Average Humidity 80    
Maximum Humidity 93    
Minimum Humidity 67    
Precipitation  
Precipitation 0.00 in - - ()
Sea Level Pressure  
Sea Level Pressure 29.86 in    
Wind  
Wind Speed 15 mph (SW)    
Max Wind Speed 24 mph    
Max Gust Speed 31 mph    
Visibility 10 miles    
Events      
Averages and records for this station are not official NWS values.
T = Trace of Precipitation, MM = Missing Value Source: NWS Daily Summary

Daily Weather History Graph

Daily Weather History Graph

Search for Another Location

Airport or City:

Trip Planner

Search our weather history database for the weather conditions in past years. The results will help you decide how hot, cold, wet, or windy it might be!

Date:

Astronomy

Jan. 19, 2014 Rise Set
Actual Time 7:08 AM CST 4:55 PM CST
Civil Twilight 6:38 AM CST 5:24 PM CST
Nautical Twilight 6:05 AM CST 5:57 PM CST
Astronomical Twilight 5:33 AM CST 6:29 PM CST
Moon 8:32 PM CST (1/19) 8:38 AM CST (1/19)
Length of Visible Light 10h 45m
Length of Day
9h 47m
Waning Gibbous, 89% of the Moon is Illuminated
Jan 19
Waning Gibbous
Jan 23
Last Quarter
Jan 30
New
Feb 6
First Quarter
Feb 14
Full

Hourly Weather History & Observations

Time (CST) Temp. Windchill Dew Point Humidity Pressure Visibility Wind Dir Wind Speed Gust Speed Precip Events Conditions
12:15 AM 23.0 °F 10.1 °F 21.0 °F 92% 29.87 in 10.0 mi NNW 15.0 mph 24.2 mph N/A   Overcast
12:35 AM 22.5 °F 10.5 °F 20.1 °F 91% 29.87 in 10.0 mi NNW 12.7 mph 26.5 mph N/A   Overcast
12:55 AM 21.7 °F 10.2 °F 19.4 °F 91% 29.88 in 10.0 mi NW 11.5 mph 20.7 mph N/A   Overcast
1:15 AM 20.3 °F 6.1 °F 18.0 °F 91% 29.89 in 10.0 mi NW 16.1 mph 21.9 mph N/A   Overcast
1:35 AM 19.4 °F 7.9 °F 17.6 °F 93% 29.91 in 7.0 mi NW 10.4 mph 19.6 mph N/A   Overcast
1:55 AM 19.2 °F 7.7 °F 17.4 °F 93% 29.92 in 7.0 mi NW 10.4 mph 20.7 mph N/A   Overcast
2:15 AM 19.2 °F 5.8 °F 17.4 °F 93% 29.94 in 7.0 mi NW 13.8 mph 18.4 mph N/A   Overcast
2:35 AM 19.4 °F 6.6 °F 17.6 °F 93% 29.95 in 10.0 mi WNW 12.7 mph - N/A   Overcast
2:55 AM 18.9 °F 6.5 °F 16.7 °F 91% 29.95 in 10.0 mi WNW 11.5 mph 24.2 mph N/A   Overcast
3:15 AM 18.7 °F 4.0 °F 16.7 °F 92% 29.96 in 10.0 mi WNW 16.1 mph 19.6 mph N/A   Overcast
3:35 AM 18.9 °F 5.3 °F 16.7 °F 91% 29.95 in 10.0 mi WNW 13.8 mph 18.4 mph N/A   Overcast
3:55 AM 19.2 °F 5.3 °F 16.7 °F 90% 29.97 in 10.0 mi WNW 15.0 mph 23.0 mph N/A   Overcast
4:15 AM 19.4 °F 5.5 °F 16.7 °F 89% 29.97 in 10.0 mi WNW 15.0 mph 19.6 mph N/A   Overcast
4:35 AM 19.8 °F 6.5 °F 16.7 °F 88% 29.97 in 10.0 mi West 13.8 mph - N/A   Overcast
4:55 AM 19.4 °F 7.2 °F 16.5 °F 89% 29.98 in 10.0 mi WNW 11.5 mph - N/A   Overcast
5:15 AM 18.5 °F 6.1 °F 15.8 °F 89% 29.98 in 10.0 mi WNW 11.5 mph - N/A   Overcast
5:35 AM 18.9 °F 5.9 °F 16.3 °F 90% 29.98 in 10.0 mi West 12.7 mph - N/A   Overcast
5:55 AM 19.4 °F 5.5 °F 17.1 °F 91% 29.99 in 10.0 mi West 15.0 mph 19.6 mph N/A   Overcast
6:15 AM 19.9 °F 7.3 °F 17.2 °F 89% 29.99 in 7.0 mi West 12.7 mph - N/A   Overcast
6:35 AM 19.8 °F 9.9 °F 17.1 °F 89% 29.99 in 10.0 mi West 8.1 mph - N/A   Overcast
6:55 AM 19.4 °F 9.5 °F 16.7 °F 89% 29.99 in 10.0 mi WSW 8.1 mph - N/A   Overcast
7:15 AM 18.5 °F 7.5 °F 16.0 °F 90% 29.99 in 10.0 mi SW 9.2 mph - N/A   Overcast
7:35 AM 19.0 °F 6.1 °F 16.5 °F 90% 29.98 in 10.0 mi SW 12.7 mph - N/A   Overcast
7:55 AM 18.9 °F 8.0 °F 16.2 °F 89% 29.97 in 10.0 mi SSW 9.2 mph - N/A   Scattered Clouds
8:15 AM 19.4 °F 7.2 °F 16.7 °F 89% 29.98 in 10.0 mi SSW 11.5 mph - N/A   Clear
8:35 AM 20.3 °F 7.7 °F 16.9 °F 87% 29.98 in 10.0 mi SSW 12.7 mph - N/A   Clear
8:55 AM 21.2 °F 8.9 °F 17.6 °F 86% 29.99 in 10.0 mi SSW 12.7 mph - N/A   Clear
9:15 AM 21.7 °F 9.6 °F 17.6 °F 84% 29.98 in 10.0 mi SSW 12.7 mph 19.6 mph N/A   Clear
9:35 AM 22.6 °F 8.7 °F 18.5 °F 84% 29.98 in 10.0 mi SSW 17.3 mph - N/A   Clear
9:50 AM 23.0 °F 9.2 °F 18.5 °F 83% 29.98 in 10.0 mi SSW 17.3 mph 23.0 mph N/A   Clear
10:15 AM 23.9 °F 9.9 °F 19.2 °F 82% 29.97 in 10.0 mi SSW 18.4 mph 23.0 mph N/A   Clear
10:35 AM 24.8 °F 10.7 °F 19.9 °F 82% 29.97 in 10.0 mi SSW 19.6 mph 23.0 mph N/A   Clear
10:55 AM 25.7 °F 13.1 °F 20.3 °F 80% 29.96 in 10.0 mi SSW 16.1 mph - N/A   Clear
11:15 AM 26.6 °F 14.3 °F 21.4 °F 81% 29.95 in 10.0 mi SSW 16.1 mph - N/A   Clear
11:35 AM 27.7 °F 14.8 °F 21.9 °F 79% 29.94 in 10.0 mi SSW 18.4 mph - N/A   Clear
11:55 AM 29.1 °F 17.1 °F 22.5 °F 76% 29.92 in 10.0 mi SSW 17.3 mph 20.7 mph N/A   Clear
12:15 PM 29.5 °F 16.8 °F 22.8 °F 76% 29.90 in 10.0 mi SSW 19.6 mph 25.3 mph N/A   Clear
12:35 PM 30.6 °F 18.6 °F 23.0 °F 74% 29.89 in 10.0 mi SSW 18.4 mph - N/A   Clear
12:55 PM 31.5 °F 20.5 °F 23.9 °F 74% 29.87 in 10.0 mi SSW 16.1 mph 23.0 mph N/A   Clear
1:15 PM 32.0 °F 20.1 °F 23.9 °F 72% 29.85 in 10.0 mi SSW 19.6 mph - N/A   Clear
1:35 PM 32.5 °F 20.2 °F 24.3 °F 72% 29.83 in 10.0 mi SSW 21.9 mph 27.6 mph N/A   Clear
1:55 PM 33.3 °F 21.2 °F 24.8 °F 71% 29.82 in 10.0 mi SSW 21.9 mph 26.5 mph N/A   Clear
2:15 PM 34.0 °F 22.7 °F 25.7 °F 72% 29.81 in 10.0 mi SSW 19.6 mph 26.5 mph N/A   Clear
2:35 PM 34.2 °F 23.3 °F 25.7 °F 71% 29.81 in 10.0 mi SSW 18.4 mph 28.8 mph N/A   Clear
2:55 PM 34.7 °F 23.4 °F 26.2 °F 71% 29.79 in 10.0 mi SSW 20.7 mph 25.3 mph N/A   Clear
3:15 PM 35.2 °F 24.4 °F 26.6 °F 71% 29.79 in 10.0 mi South 19.6 mph - N/A   Clear
3:35 PM 35.2 °F 24.7 °F 27.1 °F 72% 29.78 in 10.0 mi South 18.4 mph 21.9 mph N/A   Clear
3:55 PM 34.2 °F 23.3 °F 27.0 °F 75% 29.77 in 10.0 mi South 18.4 mph - N/A   Clear
4:15 PM 34.9 °F 24.2 °F 27.3 °F 74% 29.77 in 10.0 mi South 18.4 mph 25.3 mph N/A   Clear
4:35 PM 34.9 °F 24.6 °F 27.3 °F 74% 29.77 in 10.0 mi South 17.3 mph 25.3 mph N/A   Clear
4:55 PM 34.9 °F 23.9 °F 27.5 °F 74% 29.75 in 10.0 mi SSW 19.6 mph 26.5 mph N/A   Clear
5:15 PM 35.2 °F 24.4 °F 27.1 °F 72% 29.75 in 10.0 mi South 19.6 mph 31.1 mph N/A   Clear
5:35 PM 34.7 °F 24.7 °F 27.1 °F 74% 29.76 in 10.0 mi SSW 16.1 mph 25.3 mph N/A   Clear
5:55 PM 34.7 °F 24.0 °F 26.6 °F 72% 29.75 in 10.0 mi SSW 18.4 mph 23.0 mph N/A   Clear
6:15 PM 34.5 °F 23.8 °F 26.6 °F 73% 29.75 in 10.0 mi SSW 18.4 mph 24.2 mph N/A   Clear
6:35 PM 34.9 °F 23.9 °F 26.4 °F 71% 29.74 in 10.0 mi SSW 19.6 mph - N/A   Clear
6:55 PM 34.9 °F 24.2 °F 26.4 °F 71% 29.74 in 10.0 mi SSW 18.4 mph 26.5 mph N/A   Clear
7:15 PM 34.7 °F 24.0 °F 26.4 °F 72% 29.74 in 10.0 mi SSW 18.4 mph - N/A   Clear
7:35 PM 34.7 °F 23.7 °F 26.6 °F 72% 29.73 in 10.0 mi SSW 19.6 mph - N/A   Clear
7:55 PM 35.1 °F 23.0 °F 26.4 °F 71% 29.73 in 10.0 mi SSW 24.2 mph 29.9 mph N/A   Clear
8:15 PM 34.7 °F 23.1 °F 26.6 °F 72% 29.72 in 10.0 mi SSW 21.9 mph - N/A   Clear
8:35 PM 34.2 °F 23.0 °F 26.6 °F 74% 29.72 in 10.0 mi SSW 19.6 mph 24.2 mph N/A   Clear
8:55 PM 34.7 °F 23.4 °F 26.6 °F 72% 29.72 in 10.0 mi SSW 20.7 mph - N/A   Clear
9:15 PM 34.9 °F 23.9 °F 26.6 °F 72% 29.72 in 10.0 mi SSW 19.6 mph 25.3 mph N/A   Clear
9:35 PM 35.1 °F 23.5 °F 27.0 °F 72% 29.71 in 10.0 mi SSW 21.9 mph 26.5 mph N/A   Clear
9:55 PM 35.8 °F 24.2 °F 27.0 °F 70% 29.70 in 10.0 mi SSW 23.0 mph 28.8 mph N/A   Clear
10:15 PM 35.6 °F 24.0 °F 26.6 °F 70% 29.70 in 10.0 mi SSW 23.0 mph - N/A   Clear
10:35 PM 36.7 °F 26.0 °F 27.1 °F 68% 29.70 in 10.0 mi SW 20.7 mph 26.5 mph N/A   Clear
10:55 PM 37.0 °F 27.4 °F 27.5 °F 68% 29.69 in 10.0 mi SW 17.3 mph 24.2 mph N/A   Clear
11:15 PM 37.6 °F 26.9 °F 27.5 °F 67% 29.69 in 10.0 mi SW 21.9 mph 27.6 mph N/A   Clear
11:35 PM 37.4 °F 27.2 °F 27.5 °F 67% 29.69 in 10.0 mi SW 19.6 mph 23.0 mph N/A   Clear
11:55 PM 37.0 °F 27.0 °F 27.5 °F 68% 29.69 in 10.0 mi SW 18.4 mph - N/A   Clear